Location: Karlsruhe
(49.0131°N, 8.3874°E)
Time: 18:06:54
(UTC+02:00)

ISS - Pass Details

Date: 27 March 2017
Orbit: 401 x 409 km, 51.6° (Epoch: 29 April)

Event Time Altitude Azimuth Distance (km) Brightness Sun altitude
Rises 21:35:43 0° 218° (SW) 2,310 0.2 -17.4°
Reaches altitude 10° 21:37:56 10° 206° (SSW) 1,456 -1.0 -17.7°
Enters shadow 21:39:01 17° 194° (SSW) 1,094 -1.8 -17.9°
